KOREASAT 116

Last updated on Fri Nov 07 2025 00:02:51 GMT+0000 (Coordinated Universal Time)

1 45920U 20048A 25310.05715171 -.00000352 00000+0 00000+0 0 9991 2 45920 0.0233 281.4557 0000969 300.0378 320.8703 1.00269334 19402
UTC large
Height (km)
Speed (km/s)
/
Latitude / Longitude
Inclination (degrees)
Orbital Period (minutes)
Azimuth
Elevation
Range (km)
Doppler Factor

Next 0 passes for location: London (51.5072 / 0.1276)

Sorry there are no passes over London.